Location: The Saddle
(36.8333°N, 80.3417°W)
Time: 07:06:16
(UTC-04:00)

Courier 1B Rocket - All Passes

Search period start: 08 July 2025 00:00
Search period end: 18 July 2025 00:00
Orbit: 920 x 1201 km, 28.2° (Epoch: 08 July)

Date Brightness Start Highest point End Pass type
(mag) Time Alt. Az. Time Alt. Az. Time Alt. Az.
08 Jul - 15:19:34 10° SSW 15:25:15 27° SSE 15:31:14 10° ESE daylight
08 Jul - 17:11:27 10° WSW 17:18:13 42° S 17:25:21 10° ESE daylight
08 Jul - 19:04:29 10° WSW 19:11:27 41° S 19:18:39 10° ESE daylight
08 Jul - 20:58:31 10° WSW 21:04:32 25° SSW 21:10:36 10° SSE visible
09 Jul - 14:19:26 10° SSW 14:24:12 20° SSE 14:29:12 10° ESE daylight
09 Jul - 16:10:33 10° SW 16:16:59 38° SSE 16:23:49 10° ESE daylight
09 Jul - 18:03:16 10° WSW 18:10:09 43° S 18:17:22 10° ESE daylight
09 Jul - 19:56:50 10° WSW 20:03:18 31° SSW 20:09:57 10° SE daylight
09 Jul - 21:52:45 10° SW 21:56:10 13° SSW 21:59:34 10° S visible
10 Jul - 13:19:59 10° S 13:23:15 14° SSE 13:26:36 10° ESE daylight
10 Jul - 15:09:52 10° SW 15:15:50 32° SSE 15:22:12 10° ESE daylight
10 Jul - 17:02:11 10° WSW 17:08:53 43° S 17:15:59 10° ESE daylight
10 Jul - 18:55:24 10° WSW 19:02:03 36° SSW 19:08:59 10° SE daylight
10 Jul - 20:50:01 10° WSW 20:55:02 19° SSW 21:00:06 10° SSE daylight
11 Jul - 14:09:26 10° SSW 14:14:46 26° SSE 14:20:25 10° ESE daylight
11 Jul - 16:01:13 10° WSW 16:07:39 41° S 16:14:31 10° ESE daylight
11 Jul - 17:54:08 10° WSW 18:00:49 40° S 18:07:50 10° ESE daylight
11 Jul - 19:48:03 10° WSW 19:53:51 24° SSW 19:59:49 10° SSE daylight
12 Jul - 13:09:21 10° SSW 13:13:48 19° SSE 13:18:26 10° ESE daylight
12 Jul - 15:00:23 10° SW 15:06:30 37° SSE 15:13:00 10° ESE daylight
12 Jul - 16:53:00 10° WSW 16:59:34 42° S 17:06:33 10° ESE daylight
12 Jul - 18:46:28 10° WSW 18:52:40 30° SSW 18:59:06 10° SE daylight
12 Jul - 20:42:23 10° SW 20:45:31 13° SSW 20:48:41 10° S daylight
13 Jul - 12:10:01 10° S 12:12:53 13° SSE 12:15:50 10° SE daylight
13 Jul - 13:59:45 10° SW 14:05:25 31° SSE 14:11:25 10° ESE daylight
13 Jul - 15:52:00 10° WSW 15:58:21 42° S 16:05:10 10° ESE daylight
13 Jul - 17:45:08 10° WSW 17:51:27 35° SSW 17:58:08 10° SE daylight
13 Jul - 19:39:40 10° WSW 19:44:23 18° SSW 19:49:14 10° SSE daylight
14 Jul - 12:59:21 10° SSW 13:04:24 25° SSE 13:09:43 10° ESE daylight
14 Jul - 14:51:06 10° WSW 14:57:12 40° S 15:03:44 10° ESE daylight
14 Jul - 16:43:56 10° WSW 16:50:15 38° S 16:56:59 10° ESE daylight
14 Jul - 18:37:46 10° WSW 18:43:14 23° SSW 18:48:56 10° SSE daylight
15 Jul - 11:59:17 10° SSW 12:03:29 18° SSE 12:07:48 10° ESE daylight
15 Jul - 13:50:18 10° SW 13:56:07 35° S 14:02:16 10° ESE daylight
15 Jul - 15:42:52 10° WSW 15:49:05 41° S 15:55:44 10° ESE daylight
15 Jul - 17:36:15 10° WSW 17:42:05 28° SSW 17:48:14 10° SE daylight
15 Jul - 19:32:19 10° SW 19:34:54 12° SSW 19:37:32 10° S daylight
16 Jul - 10:59:56 10° S 11:02:36 13° SSE 11:05:16 10° SE daylight
16 Jul - 12:49:41 10° SW 12:55:06 30° SSE 13:00:46 10° ESE daylight
16 Jul - 14:41:54 10° WSW 14:47:57 41° S 14:54:24 10° ESE daylight
16 Jul - 16:34:58 10° WSW 16:40:56 33° SSW 16:47:18 10° SE daylight
16 Jul - 18:29:31 10° WSW 18:33:48 17° SSW 18:38:15 10° SSE daylight
17 Jul - 11:49:15 10° SSW 11:54:08 24° SSE 11:59:10 10° ESE daylight
17 Jul - 13:41:01 10° WSW 13:46:52 38° S 13:53:03 10° ESE daylight
17 Jul - 15:33:50 10° WSW 15:39:49 37° S 15:46:11 10° SE daylight
17 Jul - 17:27:39 10° WSW 17:32:43 22° SSW 17:38:01 10° SSE daylight
